Home   Weather   Sandefjord   Past weeks

Flag for Norway Past Weather in Sandefjord, Norway — Yesterday and Last 2 Weeks

Now
45 °F

Clear.


Feels Like: 39 °F
Forecast: 36 / 41 °F
Wind: 12 mph from Southwest

Location: Torp

Current Time: Jan 20, 2017 at 6:54:42 am

Latest Report: Jan 20, 2017 at 6:20 am


Visibility: 10 mi

Pressure: 30.21 "Hg

Humidity: 71%

Dew Point: 36 °F

Location of SandefjordLocation

Past Weather in Sandefjord — Graph

°F

Sandefjord Temperature Yesterday

Maximum temperature yesterday: 48 °F (at 12:20 pm)
Minimum temperature yesterday: 37 °F (at 5:20 am)
Average temperature yesterday: 42 °F

High & Low Weather Summary for the Past Weeks

 TemperatureHumidityPressure
High48 °F (Jan 19, 12:20 pm)100% (Jan 6, 2:20 pm)30.66 "Hg (Jan 6, 2:20 pm)
Low12 °F (Jan 5, 7:20 am)44% (Jan 15, 1:20 pm)28.50 "Hg (Jan 11, 1:50 pm)
Average32 °F84%29.89 "Hg
* Reported Jan 5 5:20 am — Jan 20 5:20 am, Sandefjord, Weather by CustomWeather, © 2017

Note: Actual official high and low records may vary slightly from our data, if they occured in-between our weather recording intervals... More about our weather records

Advertising

Sandefjord Weather History for the Previous 24 Hours

Scroll right to see more
 ConditionsComfort  
Time TempWeatherWind HumidityBarometerVisibility
5:20 am
Fri, Jan 20
43 °FQuite cool.10 mph81%30.24 "HgN/A
4:50 am43 °FQuite cool.9 mph81%30.24 "HgN/A
4:20 am41 °FPassing clouds.8 mph87%30.24 "HgN/A
3:50 am43 °FOvercast.10 mph81%30.27 "HgN/A
3:20 am43 °FPassing clouds.9 mph81%30.27 "HgN/A
2:50 am43 °FQuite cool.8 mph81%30.27 "HgN/A
2:20 am43 °FPassing clouds.12 mph81%30.27 "HgN/A
1:50 am43 °FPassing clouds.9 mph76%30.27 "HgN/A
1:20 am46 °FPassing clouds.9 mph66%30.27 "HgN/A
12:50 am45 °FQuite cool.8 mph76%30.27 "HgN/A
12:20 am43 °FQuite cool.7 mph76%30.27 "HgN/A
11:50 pm
Thu, Jan 19
41 °FQuite cool.9 mph81%30.27 "HgN/A
11:20 pm39 °FChilly.6 mph93%30.27 "HgN/A
10:50 pm39 °FClear.8 mph93%30.27 "Hg10 mi
10:20 pm41 °FClear.6 mph81%30.27 "Hg10 mi
9:50 pm43 °FPassing clouds.6 mph76%30.27 "HgN/A
9:20 pm45 °FPassing clouds.5 mph66%30.27 "HgN/A
8:50 pm45 °FClear.8 mph71%30.27 "Hg10 mi
8:20 pm45 °FClear.12 mph76%30.27 "Hg10 mi
7:50 pm46 °FClear.10 mph71%30.27 "Hg10 mi
7:20 pm43 °FClear.6 mph81%30.27 "Hg10 mi
6:50 pm43 °FClear.12 mph87%30.24 "Hg10 mi
6:20 pm45 °FClear.12 mph81%30.24 "Hg10 mi
5:50 pm43 °FClear.8 mph87%30.24 "Hg10 mi
5:20 pm45 °FClear.13 mph76%30.24 "Hg10 mi
4:50 pm45 °FClear.6 mph81%30.27 "Hg10 mi
4:20 pm45 °FClear.9 mph81%30.24 "Hg10 mi
3:50 pm46 °FSunny.9 mph76%30.24 "Hg10 mi
3:20 pm46 °FSunny.7 mph76%30.24 "Hg10 mi
2:50 pm46 °FSunny.9 mph76%30.24 "Hg10 mi
2:20 pm48 °FSunny.9 mph71%30.24 "Hg10 mi
1:50 pm46 °FPassing clouds.7 mph76%30.24 "HgN/A
1:20 pm46 °FSunny.8 mph76%30.24 "Hg10 mi
12:50 pm48 °FSunny.9 mph71%30.24 "Hg10 mi
12:20 pm48 °FPassing clouds.6 mph71%30.24 "HgN/A
11:50 am46 °FSunny.3 mph76%30.24 "Hg10 mi
11:20 am43 °FSunny.8 mph87%30.24 "Hg10 mi
10:50 am43 °FSunny.5 mph87%30.24 "Hg10 mi
10:20 am41 °FPassing clouds.3 mph93%30.24 "HgN/A
9:50 am39 °FSunny.9 mph100%30.24 "Hg10 mi
9:20 am39 °FSunny.8 mph93%30.27 "Hg10 mi
8:50 am41 °FClear.7 mph87%30.27 "Hg10 mi
8:20 am37 °FClear.8 mph100%30.27 "Hg10 mi
7:50 am37 °FClear.7 mph100%30.27 "Hg10 mi
7:20 am37 °FClear.13 mph100%30.27 "Hg10 mi
6:50 am39 °FClear.13 mph93%30.27 "Hg10 mi
6:20 am39 °FClear.12 mph93%30.27 "Hg10 mi
Weather by CustomWeather, © 2017

See weather overviewHow to use our weather pages